KF0EZB Weather Reports


Display with metric or nautical units.
time (UTC)temp
F
wind
direction
speed
MPH
gust
MPH
rain 1hr
in
rain 24hr
in
rain mn
in
humidity
%
barometer
mb
20260902042025 83 157 1.0 5.0 0.00 0.00 0.00 47 1013.3
20260902041520 83 205 0.0 8.0 0.00 0.00 0.00 47 1013.5
20260902041014 83 118 1.0 3.0 0.00 0.00 0.00 47 1013.5
20260902040509 83 244 4.0 7.0 0.00 0.00 0.00 47 1013.4
20260902040009 83 160 1.0 7.0 0.00 0.00 0.00 47 1013.5
20260902035503 83 40 1.0 2.0 0.00 0.00 0.00 48 1013.4
20260902034956 83 165 1.0 5.0 0.00 0.00 0.00 48 1013.4
20260902034456 84 169 0.0 3.0 0.00 0.00 0.00 48 1013.4
20260902033951 84 281 2.0 5.0 0.00 0.00 0.00 47 1013.4
20260902033450 84 55 0.0 1.0 0.00 0.00 0.00 47 1013.3
20260902032949 84 157 2.0 6.0 0.00 0.00 0.00 47 1013.5
20260902032444 84 133 1.0 8.0 0.00 0.00 0.00 47 1013.2
20260902031939 84 171 4.0 7.0 0.00 0.00 0.00 48 1013.4
20260902031434 84 189 5.0 6.0 0.00 0.00 0.00 48 1013.3
20260902030931 84 108 1.0 3.0 0.00 0.00 0.00 48 1013.2
20260902030430 84 179 1.0 5.0 0.00 0.00 0.00 48 1013.1
20260902025929 85 146 0.0 2.0 0.00 0.00 0.00 48 1012.8
20260902025425 85 151 1.0 1.0 0.00 0.00 0.00 47 1013.2
20260902024920 85 190 2.0 3.0 0.00 0.00 0.00 47 1012.9
20260902024415 86 232 0.0 2.0 0.00 0.00 0.00 47 1012.8
20260902023910 86 180 0.0 5.0 0.00 0.00 0.00 46 1013.0
20260902023406 86 150 1.0 2.0 0.00 0.00 0.00 46 1012.7
20260902022905 87 117 1.0 3.0 0.00 0.00 0.00 45 1012.4
20260902022400 87 133 1.0 3.0 0.00 0.00 0.00 45 1012.6
20260902021856 87 182 1.0 5.0 0.00 0.00 0.00 44 1012.5
20260902021355 88 187 0.0 6.0 0.00 0.00 0.00 44 1012.5
20260902020851 88 145 1.0 3.0 0.00 0.00 0.00 44 1012.4
20260902020348 88 93 0.0 6.0 0.00 0.00 0.00 43 1012.2
20260902015843 88 156 1.0 3.0 0.00 0.00 0.00 44 1012.3
20260902015338 88 198 0.0 1.0 0.00 0.00 0.00 43 1012.2
20260902014834 88 159 0.0 0.0 0.00 0.00 0.00 43 1012.1
20260902014330 89 145 0.0 0.0 0.00 0.00 0.00 43 1012.1
20260902013829 89 126 3.0 5.0 0.00 0.00 0.00 42 1012.0
20260902013325 89 158 2.0 2.0 0.00 0.00 0.00 42 1012.2
20260902012820 90 127 1.0 3.0 0.00 0.00 0.00 41 1012.1
20260902012316 90 128 1.0 2.0 0.00 0.00 0.00 41 1011.7
20260902011811 90 163 0.0 2.0 0.00 0.00 0.00 41 1011.9
20260902011306 91 142 0.0 1.0 0.00 0.00 0.00 40 1012.0
20260902010805 91 143 0.0 6.0 0.00 0.00 0.00 40 1012.0
20260902010301 91 166 0.0 3.0 0.00 0.00 0.00 40 1012.1
20260902005759 91 167 1.0 2.0 0.00 0.00 0.00 39 1012.1
20260902005254 92 173 0.0 0.0 0.00 0.00 0.00 39 1011.7
20260902004749 92 141 1.0 2.0 0.00 0.00 0.00 39 1012.0
20260902004244 93 185 1.0 2.0 0.00 0.00 0.00 38 1012.0
20260902003739 94 140 0.0 3.0 0.00 0.00 0.00 36 1012.2
20260902003235 94 200 2.0 3.0 0.00 0.00 0.00 35 1012.1
20260902002730 95 195 0.0 3.0 0.00 0.00 0.00 34 1012.0
20260902002230 95 171 0.0 3.0 0.00 0.00 0.00 33 1012.1
20260902001726 96 103 3.0 8.0 0.00 0.00 0.00 33 1012.0
20260902001225 97 136 2.0 8.0 0.00 0.00 0.00 32 1012.0
20260902000720 97 192 2.0 6.0 0.00 0.00 0.00 32 1012.1
20260902000215 98 174 1.0 3.0 0.00 0.00 0.00 32 1012.0
20260901235715 98 163 0.0 5.0 0.00 0.00 0.00 31 1012.0
20260901235210 98 206 3.0 7.0 0.00 0.00 0.00 31 1011.9
20260901234709 98 127 1.0 6.0 0.00 0.00 0.00 31 1012.0
20260901234204 99 210 3.0 5.0 0.00 0.00 0.00 30 1012.2
20260901233658 99 176 1.0 6.0 0.00 0.00 0.00 30 1011.7
20260901233155 99 158 3.0 3.0 0.00 0.00 0.00 29 1011.9
20260901232649 99 198 2.0 5.0 0.00 0.00 0.00 29 1012.2
20260901230820 100 246 2.0 6.0 0.00 0.00 0.00 30 1012.4
20260901230319 100 246 2.0 6.0 0.00 0.00 0.00 30 1012.4
20260901225815 100 265 4.0 7.0 0.00 0.00 0.00 29 1012.3
20260901225314 100 265 4.0 7.0 0.00 0.00 0.00 29 1012.3
20260901224809 100 202 4.0 5.0 0.00 0.00 0.00 29 1012.4
20260901224306 101 200 1.0 6.0 0.00 0.00 0.00 28 1012.2
20260901223801 101 211 2.0 3.0 0.00 0.00 0.00 28 1012.2
20260901223256 101 216 4.0 5.0 0.00 0.00 0.00 28 1012.3
20260901222752 100 148 1.0 7.0 0.00 0.00 0.00 29 1012.3
20260901222248 100 165 0.0 7.0 0.00 0.00 0.00 29 1012.4
20260901221744 100 264 3.0 6.0 0.00 0.00 0.00 30 1012.3
20260901221239 101 221 3.0 7.0 0.00 0.00 0.00 29 1012.5
20260901220738 101 147 4.0 9.0 0.00 0.00 0.00 29 1012.6
20260901220233 102 111 1.0 8.0 0.00 0.00 0.00 29 1012.4
20260901215731 101 161 0.0 7.0 0.00 0.00 0.00 28 1012.4
20260901215226 102 155 2.0 6.0 0.00 0.00 0.00 28 1012.6
20260901214724 101 144 4.0 6.0 0.00 0.00 0.00 28 1012.8
20260901214218 100 198 1.0 6.0 0.00 0.00 0.00 28 1012.9
20260901213718 101 112 3.0 8.0 0.00 0.00 0.00 28 1012.8
20260901213213 99 314 3.0 5.0 0.00 0.00 0.00 29 1013.1
20260901212712 98 187 3.0 7.0 0.00 0.00 0.00 30 1013.1
20260901212208 100 176 2.0 5.0 0.00 0.00 0.00 29 1013.1
20260901211708 100 262 4.0 7.0 0.00 0.00 0.00 29 1013.3
20260901211205 100 250 3.0 5.0 0.00 0.00 0.00 28 1013.1
20260901210700 99 190 2.0 6.0 0.00 0.00 0.00 29 1013.4
20260901210156 101 107 2.0 5.0 0.00 0.00 0.00 28 1013.4
20260901205652 102 190 3.0 7.0 0.00 0.00 0.00 27 1013.3
20260901205152 102 132 7.0 9.0 0.00 0.00 0.00 28 1013.3
20260901204647 101 203 4.0 8.0 0.00 0.00 0.00 27 1013.5
20260901204143 102 202 3.0 6.0 0.00 0.00 0.00 26 1013.4
20260901203643 100 191 3.0 7.0 0.00 0.00 0.00 27 1013.5
20260901203138 100 197 2.0 6.0 0.00 0.00 0.00 27 1013.7
20260901202637 101 204 3.0 5.0 0.00 0.00 0.00 26 1014.1
20260901202133 101 204 3.0 5.0 0.00 0.00 0.00 26 1014.1
20260901201629 101 204 3.0 5.0 0.00 0.00 0.00 26 1014.1
20260901201128 101 237 3.0 10.0 0.00 0.00 0.00 27 1013.9
20260901200628 101 198 2.0 11.0 0.00 0.00 0.00 27 1014.2
20260901200123 101 227 4.0 6.0 0.00 0.00 0.00 27 1014.1
20260901195621 101 174 3.0 7.0 0.00 0.00 0.00 26 1014.5
20260901195120 101 180 5.0 7.0 0.00 0.00 0.00 27 1014.3
20260901194616 100 96 1.0 11.0 0.00 0.00 0.00 28 1014.3
20260901194111 101 62 6.0 10.0 0.00 0.00 0.00 27 1014.6
20260901193607 100 188 2.0 6.0 0.00 0.00 0.00 28 1014.5
20260901193101 100 214 2.0 7.0 0.00 0.00 0.00 28 1014.6
20260901192556 100 38 3.0 6.0 0.00 0.00 0.00 28 1014.5
20260901192051 101 235 1.0 7.0 0.00 0.00 0.00 28 1014.6
20260901191547 100 122 1.0 11.0 0.00 0.00 0.00 28 1014.6
20260901191043 101 140 2.0 5.0 0.00 0.00 0.00 28 1014.5
20260901190539 100 208 2.0 6.0 0.00 0.00 0.00 28 1014.6
20260901190038 99 195 2.0 7.0 0.00 0.00 0.00 29 1014.9
20260901185537 100 216 6.0 11.0 0.00 0.00 0.00 28 1014.8
20260901185036 100 216 6.0 11.0 0.00 0.00 0.00 28 1014.8
20260901184531 100 321 3.0 8.0 0.00 0.00 0.00 29 1015.0
20260901184026 99 154 2.0 6.0 0.00 0.00 0.00 30 1014.9
20260901183521 99 283 3.0 9.0 0.00 0.00 0.00 29 1014.9
20260901183016 100 276 2.0 7.0 0.00 0.00 0.00 29 1015.2
20260901182513 100 199 3.0 11.0 0.00 0.00 0.00 29 1015.2
20260901182007 100 280 0.0 0.0 0.00 0.00 0.00 29 1015.1
20260901181507 101 148 1.0 6.0 0.00 0.00 0.00 29 1015.2
20260901181006 100 291 2.0 6.0 0.00 0.00 0.00 29 1015.4
20260901180505 100 97 2.0 6.0 0.00 0.00 0.00 29 1015.2
20260901180004 100 206 5.0 9.0 0.00 0.00 0.00 29 1015.7
20260901175458 100 187 3.0 7.0 0.00 0.00 0.00 28 1015.6
20260901174953 99 187 1.0 8.0 0.00 0.00 0.00 30 1015.5
20260901174449 99 312 2.0 9.0 0.00 0.00 0.00 30 1015.7
20260901173945 99 51 1.0 6.0 0.00 0.00 0.00 30 1015.8
20260901173440 99 220 3.0 5.0 0.00 0.00 0.00 30 1015.8
20260901172936 99 302 2.0 7.0 0.00 0.00 0.00 31 1015.7
20260901172431 98 185 1.0 3.0 0.00 0.00 0.00 32 1015.8
20260901171929 97 284 4.0 6.0 0.00 0.00 0.00 32 1015.9
20260901171428 98 186 3.0 5.0 0.00 0.00 0.00 32 1016.1
20260901170927 97 291 3.0 5.0 0.00 0.00 0.00 33 1015.9
20260901170422 97 295 3.0 6.0 0.00 0.00 0.00 33 1016.0
20260901165921 98 275 4.0 6.0 0.00 0.00 0.00 33 1016.1
20260901165416 97 195 1.0 2.0 0.00 0.00 0.00 34 1016.0
20260901164912 96 131 2.0 6.0 0.00 0.00 0.00 34 1015.9
20260901164412 96 245 2.0 5.0 0.00 0.00 0.00 35 1016.1
20260901163907 96 63 1.0 7.0 0.00 0.00 0.00 35 1016.0
20260901163402 96 186 2.0 3.0 0.00 0.00 0.00 36 1016.0
20260901162857 95 122 1.0 5.0 0.00 0.00 0.00 36 1016.1
20260901162356 95 262 2.0 7.0 0.00 0.00 0.00 36 1016.2
20260901161856 94 174 2.0 6.0 0.00 0.00 0.00 37 1015.9
20260901161355 94 195 1.0 7.0 0.00 0.00 0.00 38 1016.0
20260901160850 94 184 2.0 7.0 0.00 0.00 0.00 37 1016.1
20260901160347 93 229 2.0 6.0 0.00 0.00 0.00 38 1016.0
20260901155846 92 209 2.0 3.0 0.00 0.00 0.00 39 1016.1
20260901155341 92 153 1.0 6.0 0.00 0.00 0.00 40 1016.1
20260901154838 91 279 4.0 5.0 0.00 0.00 0.00 40 1015.9
20260901154336 90 276 3.0 7.0 0.00 0.00 0.00 41 1015.9
20260901153831 89 274 3.0 10.0 0.00 0.00 0.00 42 1016.2
20260901153326 89 220 0.0 6.0 0.00 0.00 0.00 42 1015.9
20260901152825 88 200 1.0 8.0 0.00 0.00 0.00 42 1016.2
20260901152324 88 213 1.0 7.0 0.00 0.00 0.00 42 1016.0
20260901151820 87 230 2.0 6.0 0.00 0.00 0.00 45 1016.0
20260901151314 87 230 2.0 6.0 0.00 0.00 0.00 45 1016.0
20260901150808 86 213 1.0 3.0 0.00 0.00 0.00 46 1016.0
20260901150305 86 213 1.0 3.0 0.00 0.00 0.00 46 1016.0
20260901143708 82 195 1.0 2.0 0.00 0.00 0.00 52 1016.1
20260901143205 82 195 1.0 2.0 0.00 0.00 0.00 52 1016.1
20260901142701 82 195 1.0 2.0 0.00 0.00 0.00 52 1016.1
20260901142159 81 301 3.0 3.0 0.00 0.00 0.00 53 1016.5
20260901141654 81 173 1.0 5.0 0.00 0.00 0.00 53 1016.4
20260901141149 80 196 1.0 2.0 0.00 0.00 0.00 55 1016.3
20260901140648 79 206 0.0 0.0 0.00 0.00 0.00 56 1016.4
20260901140147 79 174 0.0 0.0 0.00 0.00 0.00 57 1016.5
20260901135642 78 213 2.0 5.0 0.00 0.00 0.00 58 1016.3
20260901135137 77 251 1.0 5.0 0.00 0.00 0.00 60 1016.6
20260901134633 77 179 0.0 1.0 0.00 0.00 0.00 60 1016.5
20260901134128 76 164 0.0 3.0 0.00 0.00 0.00 61 1016.3
20260901133627 74 171 0.0 1.0 0.00 0.00 0.00 65 1016.4
20260901133125 74 171 0.0 1.0 0.00 0.00 0.00 65 1016.4
20260901132620 73 249 0.0 0.0 0.00 0.00 0.00 66 1016.4
20260901132119 73 196 2.0 2.0 0.00 0.00 0.00 68 1016.3
20260901131619 72 156 1.0 1.0 0.00 0.00 0.00 70 1016.5
20260901131114 72 170 0.0 2.0 0.00 0.00 0.00 70 1016.5
20260901130609 71 171 0.0 1.0 0.00 0.00 0.00 71 1016.5
20260901130108 71 172 0.0 1.0 0.00 0.00 0.00 71 1016.4
20260901125606 71 176 0.0 0.0 0.00 0.00 0.00 71 1016.3
20260901125101 71 184 0.0 0.0 0.00 0.00 0.00 71 1016.1
20260901124556 71 186 0.0 0.0 0.00 0.00 0.00 71 1016.0
20260901124051 71 186 0.0 0.0 0.00 0.00 0.00 70 1016.1
20260901123545 71 201 0.0 0.0 0.00 0.00 0.00 70 1016.2
20260901123045 71 214 0.0 0.0 0.00 0.00 0.00 70 1016.1
20260901122544 71 198 2.0 2.0 0.00 0.00 0.00 70 1016.2
20260901122043 71 157 0.0 1.0 0.00 0.00 0.00 70 1016.1
20260901121543 70 275 0.0 5.0 0.00 0.00 0.00 71 1016.4
20260901121038 70 198 0.0 0.0 0.00 0.00 0.00 72 1016.0
20260901120533 70 168 0.0 0.0 0.00 0.00 0.00 73 1015.9
20260901120029 69 195 0.0 0.0 0.00 0.00 0.00 73 1016.1
20260901115524 69 170 0.0 1.0 0.00 0.00 0.00 73 1015.8
20260901115021 69 175 0.0 0.0 0.00 0.00 0.00 74 1015.9
20260901114516 69 189 0.0 1.0 0.00 0.00 0.00 74 1016.0
20260901114015 69 167 0.0 0.0 0.00 0.00 0.00 75 1015.9
20260901113514 68 167 0.0 0.0 0.00 0.00 0.00 75 1015.7
20260901113010 69 167 0.0 0.0 0.00 0.00 0.00 75 1015.9
20260901112504 69 167 0.0 0.0 0.00 0.00 0.00 75 1015.8
20260901111959 68 167 0.0 0.0 0.00 0.00 0.00 75 1015.5
20260901111457 69 168 0.0 0.0 0.00 0.00 0.00 74 1015.5
20260901110955 69 168 0.0 0.0 0.00 0.00 0.00 74 1015.7
20260901110452 69 169 0.0 0.0 0.00 0.00 0.00 73 1015.7
20260901105948 69 170 0.0 0.0 0.00 0.00 0.00 72 1015.7
20260901105443 70 171 0.0 0.0 0.00 0.00 0.00 71 1015.4
20260901104938 70 172 0.0 0.0 0.00 0.00 0.00 70 1015.7
20260901104434 71 174 0.0 0.0 0.00 0.00 0.00 70 1015.6
20260901103929 71 175 0.0 0.0 0.00 0.00 0.00 69 1015.5
20260901103429 71 176 0.0 0.0 0.00 0.00 0.00 69 1015.6
20260901102930 72 178 0.0 0.0 0.00 0.00 0.00 68 1015.5
20260901102424 72 179 0.0 1.0 0.00 0.00 0.00 67 1015.6
20260901101919 73 182 0.0 0.0 0.00 0.00 0.00 66 1015.7
20260901101414 73 270 0.0 0.0 0.00 0.00 0.00 66 1015.6
20260901100914 73 225 0.0 0.0 0.00 0.00 0.00 66 1015.8
20260901100408 73 181 0.0 1.0 0.00 0.00 0.00 66 1015.8
20260901095902 73 183 0.0 0.0 0.00 0.00 0.00 65 1015.8
20260901095400 73 187 0.0 1.0 0.00 0.00 0.00 65 1015.5
20260901094854 73 219 0.0 0.0 0.00 0.00 0.00 64 1015.6
20260901094348 74 191 0.0 0.0 0.00 0.00 0.00 63 1015.6
20260901093844 75 202 0.0 0.0 0.00 0.00 0.00 62 1015.5
20260901093343 75 238 0.0 2.0 0.00 0.00 0.00 61 1015.4
20260901092839 75 230 0.0 0.0 0.00 0.00 0.00 60 1015.4
20260901092334 74 187 0.0 0.0 0.00 0.00 0.00 61 1015.4
20260901091831 75 200 0.0 0.0 0.00 0.00 0.00 61 1015.5
20260901091330 75 242 0.0 2.0 0.00 0.00 0.00 61 1015.4
20260901090825 75 209 0.0 1.0 0.00 0.00 0.00 61 1015.2
20260901090320 75 207 0.0 0.0 0.00 0.00 0.00 61 1015.6
20260901085817 75 171 0.0 1.0 0.00 0.00 0.00 61 1015.5
20260901085316 75 186 1.0 2.0 0.00 0.00 0.00 61 1015.5
20260901084813 75 178 0.0 1.0 0.00 0.00 0.00 60 1015.4
20260901084309 75 183 0.0 0.0 0.00 0.00 0.00 60 1015.4
20260901083808 76 191 0.0 1.0 0.00 0.00 0.00 59 1015.4
20260901083303 76 223 0.0 2.0 0.00 0.00 0.00 59 1015.1
20260901082801 77 175 0.0 0.0 0.00 0.00 0.00 58 1015.5
20260901082257 77 178 0.0 1.0 0.00 0.00 0.00 57 1015.4
20260901081752 77 183 0.0 1.0 0.00 0.00 0.00 56 1015.2
20260901081252 78 195 0.0 0.0 0.00 0.00 0.00 56 1015.2
20260901080747 78 218 0.0 0.0 0.00 0.00 0.00 55 1015.5
20260901080246 78 180 0.0 0.0 0.00 0.00 0.00 55 1015.0
20260901075740 78 223 0.0 1.0 0.00 0.00 0.00 55 1014.8
20260901075235 78 226 2.0 5.0 0.00 0.00 0.00 55 1014.9
20260901074730 79 180 2.0 5.0 0.00 0.00 0.00 54 1014.9
20260901074225 79 193 2.0 5.0 0.00 0.00 0.00 54 1014.7
20260901073722 79 211 2.0 3.0 0.00 0.00 0.00 53 1014.7
20260901073217 79 216 2.0 2.0 0.00 0.00 0.00 53 1014.7
20260901072712 80 198 4.0 5.0 0.00 0.00 0.00 53 1014.4
20260901072207 80 277 2.0 2.0 0.00 0.00 0.00 52 1014.6
20260901071707 80 181 0.0 3.0 0.00 0.00 0.00 52 1014.5
20260901071201 80 225 1.0 3.0 0.00 0.00 0.00 52 1014.6
20260901070655 81 97 2.0 5.0 0.00 0.00 0.00 52 1014.6
20260901070150 81 161 1.0 2.0 0.00 0.00 0.00 51 1014.6
20260901065649 81 171 1.0 8.0 0.00 0.00 0.00 51 1014.7
20260901065144 81 250 0.0 7.0 0.00 0.00 0.00 51 1014.5
20260901064641 81 199 0.0 3.0 0.00 0.00 0.00 51 1014.4
20260901064137 81 72 0.0 3.0 0.00 0.00 0.00 51 1014.4
20260901063635 81 265 3.0 8.0 0.00 0.00 0.00 51 1014.7
20260901063130 81 180 2.0 3.0 0.00 0.00 0.00 51 1014.5
20260901062625 82 156 1.0 3.0 0.00 0.00 0.00 51 1014.9
20260901062121 82 207 2.0 5.0 0.00 0.00 0.00 51 1014.7
20260901061617 81 178 2.0 7.0 0.00 0.00 0.00 51 1014.5
20260901061111 81 209 3.0 6.0 0.00 0.00 0.00 52 1014.5
20260901060606 81 183 1.0 5.0 0.00 0.00 0.00 52 1014.6
20260901055556 82 141 0.0 2.0 0.00 0.00 0.00 52 1014.3
20260901055053 82 185 0.0 1.0 0.00 0.00 0.00 51 1014.3
20260901054550 82 176 0.0 5.0 0.00 0.00 0.00 51 1014.2
20260901054046 82 203 0.0 0.0 0.00 0.00 0.00 51 1014.1
20260901053542 82 30 0.0 5.0 0.00 0.00 0.00 51 1014.3
20260901053037 82 135 1.0 5.0 0.00 0.00 0.00 50 1014.2
20260901052537 82 182 1.0 6.0 0.00 0.00 0.00 50 1014.2
20260901052032 83 239 3.0 5.0 0.00 0.00 0.00 50 1014.2
20260901051527 83 149 0.0 0.0 0.00 0.00 0.00 50 1014.4
20260901051026 83 156 1.0 6.0 0.00 0.00 0.00 50 1014.5
20260901050521 83 181 0.0 1.0 0.00 0.00 0.00 49 1014.1
20260901050016 83 296 1.0 6.0 0.00 0.00 0.00 49 1014.3
20260901045511 84 114 0.0 3.0 0.00 0.00 0.00 49 1014.2
20260901045006 84 51 2.0 2.0 0.00 0.00 0.00 49 1014.3
20260901044502 84 139 1.0 7.0 0.00 0.00 0.00 49 1014.4
20260901043958 84 176 0.0 1.0 0.00 0.00 0.00 48 1014.2
20260901043453 84 179 2.0 9.0 0.00 0.00 0.00 48 1014.3
20260901042948 85 136 2.0 6.0 0.00 0.00 0.00 47 1014.4
20260901042447 85 164 0.0 2.0 0.00 0.00 0.00 47 1014.3